BLUEBIRD E

Last updated on Fri Sep 13 2024 00:02:05 GMT+0000 (Coordinated Universal Time)

1 61049U 24163E 24256.79103663 -.00000321 00000+0 00000+0 0 9995 2 61049 52.9814 19.9199 0012751 335.7837 191.8752 15.17711749 52
UTC large
Height (km)
Speed (km/s)
/
Latitude / Longitude
Inclination (degrees)
Orbital Period (minutes)
Azimuth
Elevation
Range (km)
Doppler Factor

Next 0 passes for location: London (51.5072 / 0.1276)

Sorry there are no passes over London.